Content
SEND FEEDBACK

Daily
Averages
Monthly
Summary
Philippines

QUEZON CITY, PHILIPPINES


Home > Asia > Philippines
Elevation: 46 meters     Latitude: 14 39N     Longitude: 121 03E

WEATHER
 
SELECT A DAY
Number of Records: 172,634;   Date Range: 7/1/96 - 8/30/14
 
SHARE

PRINT THIS DATA

[ ← Previous Day ]
WEATHER ALMANAC - 17 MARCH, 2013
[ Next Day → ]
[ °F ]   °C
Weather ElementAverageHighLow
Temperature28.7 °C33 °C (3:00 pm)25 °C (6:00 am)
Dewpoint21.4 °C23 °C (8:00 pm)19 °C (2:00 pm)
Humidity63.7 %83 % (7:00 am)45 % (5:00 pm)
Barometer1012.2 hPa1014.6 hPa (11:00 am)1009.1 hPa (4:00 pm)
Wind Speed21.4 km/h201.7 km/h (8:00 pm)
Weather ElementAverage
Visibility10 km
Wind DirectionESE (116.7 °)

Weather ElementTotal
Precipitation---
Cooling Degree Days10.7 (Base 18.3)
Growing Degree Days19 (Base 10)
Averaged from 30 records on 17 March, 2013
WEATHER CONDITIONS BREAKOUT
WIND DIRECTION BREAKOUT
WEATHER BY HOUR - 17 MARCH, 2013
[ °F ]   °C
Local TimeTemperatureDewpointHumidityBarometerVisibilityWind DirectionWind SpeedGust SpeedPrecipitationEventsConditions
1:00 AM27 °C22 °C74 %1014.2 hPa10 kmESE (110°)11.1 km/hPartly Cloudy
2:00 AM26.7 °C21.7 °C67 %1013.5 hPa9.7 kmESE (120°)10.8 km/hHaze
2:00 AM27 °C22 °C74 %1013.2 hPa10 kmESE (120°)11.1 km/hPartly Cloudy
3:00 AM27 °C22 °C74 %1012.2 hPa10 kmESE (110°)13 km/hPartly Cloudy
4:00 AM26 °C21 °C74 %1012.2 hPa10 kmEast (100°)11.1 km/hPartly Cloudy
5:00 AM26.1 °C21.1 °C68 %1012.5 hPa9.7 kmESE (110°)14.3 km/hHaze
5:00 AM26 °C21 °C74 %1012.2 hPa10 kmESE (110°)13 km/hPartly Cloudy
6:00 AM25 °C21 °C78 %1013.2 hPa10 kmEast (80°)7.4 km/hPartly Cloudy
7:00 AM25 °C22 °C83 %1013.2 hPa10 kmENE (70°)13 km/hPartly Cloudy
8:00 AM27.8 °C21.1 °C59 %1014.2 hPa9.7 kmEast (100°)14.3 km/hHaze
8:00 AM28 °C21 °C66 %1014.2 hPa10 kmEast (100°)14.8 km/hPartly Cloudy
9:00 AM29 °C22 °C66 %1014.2 hPa10 kmEast (100°)14.8 km/hPartly Cloudy
10:00 AM30 °C22 °C62 %1014.2 hPa10 kmESE (120°)14.8 km/hPartly Cloudy
11:00 AM31.1 °C21.1 °C46 %1014.6 hPa9.7 kmSE (130°)18 km/hHaze
11:00 AM31 °C21 °C55 %1014.2 hPa10 kmSE (130°)16.7 km/hPartly Cloudy
12:00 PM32 °C21 °C52 %1013.2 hPa10 kmSE (130°)16.7 km/hPartly Cloudy
1:00 PM32 °C20 °C49 %1011.2 hPa10 kmSE (130°)18.5 km/hPartly Cloudy
2:00 PM32 °C19 °C46 %1010.2 hPa10 kmSE (130°)20.4 km/hPartly Cloudy
3:00 PM33 °C20 °C46 %1010.2 hPa10 kmSE (130°)22.2 km/hPartly Cloudy
4:00 PM32 °C20 °C49 %1009.1 hPa10 kmESE (120°)22.2 km/hPartly Cloudy
5:00 PM31.7 °C21.7 °C45 %1010.2 hPa9.7 kmESE (120°)14.3 km/hScattered Clouds
5:00 PM32 °C21 °C52 %1010.2 hPa10 kmESE (120°)14.8 km/hPartly Cloudy
6:00 PM30 °C21 °C58 %1010.2 hPa10 kmESE (120°)14.8 km/hPartly Cloudy
7:00 PM29 °C22 °C66 %1010.2 hPa10 kmESE (120°)14.8 km/hPartly Cloudy
8:00 PM28.3 °C22.8 °C66 %1011.5 hPa9.7 kmSSW (200°)201.7 km/hScattered Clouds
8:00 PM28 °C23 °C74 %1011.2 hPa10 kmESE (120°)18.5 km/hPartly Cloudy
9:00 PM28 °C23 °C74 %1011.2 hPa10 kmESE (110°)18.5 km/hPartly Cloudy
10:00 PM27 °C22 °C74 %1012.2 hPa10 kmESE (120°)14.8 km/hPartly Cloudy
11:00 PM27.2 °C22.2 °C67 %1011.9 hPa9.7 kmESE (110°)14.3 km/hScattered Clouds
11:00 PM27 °C22 °C74 %1011.2 hPa10 kmESE (110°)14.8 km/h
Hourly data recorded from RPLL, located 0 kilometers away from Quezon City, Philippines







STORIES FROM OUR PARTNERS